Meteo Giornale » Osservazioni meteo Italia » Bari-Palese Macchie

ore: 14:20 - Osservazioni Meteo Bari-Palese Macchie
Lat. 41° 8' N Lon. 16° 47' E Alt. 34 metri s.l.m.

molto_nuvoloso Europe/Rome

14 °C

Molto Nuvoloso

Temp. 24 Ore

13 °C

17 °C

Nord

5.5 Km/h

Dew point 12 °C

Umidità 87 %

Visibilità  10 Km

Il sole sorge alle ore 06:59

Il sole tramonta alle ore 16:26

Data e Ora Cielo e Fenomeni T °C DP °C Um. % Pres. hPa Vis. km Vento km/h
Oggi h: 14:20 molto_nuvoloso Molto Nuvoloso 14 12 87 1004 10 N 5.5
Oggi h: 13:50 molto_nuvoloso Molto Nuvoloso 14 12 87 1005 10 N/NO 9.3
Oggi h: 13:20 nuvoloso Nuvoloso 15 12 82 1004 10 N/NO 11.1
Oggi h: 12:50 nuvoloso_temporali Temporale nelle Vicinanze 17 12 72 1005 10 S/SE 9.3
Oggi h: 12:20 poco_nuvoloso Poco Nuvoloso 17 11 67 1005 10 S/SE 13
Oggi h: 11:50 poco_nuvoloso Poco Nuvoloso 17 12 72 1005 10 S 13
Oggi h: 11:20 sereno Sereno 17 12 72 1006 10 S 13
Oggi h: 10:50 sereno Sereno 17 13 77 1006 10 S/SE 16.7
Oggi h: 10:20 poco_nuvoloso Poco Nuvoloso 17 13 77 1006 10 S/SE 16.7
Oggi h: 09:50 poco_nuvoloso Poco Nuvoloso 16 13 82 1006 10 S/SE 16.7
Oggi h: 09:20 poco_nuvoloso Poco Nuvoloso 15 13 87 1006 10 SE 16.7
Oggi h: 08:50 poco_nuvoloso Poco Nuvoloso 14 13 93 1006 10 S/SE 9.3
Oggi h: 08:20 poco_nuvoloso Poco Nuvoloso 13 12 93 1006 10 SE 7.4
Oggi h: 07:50 nuvoloso Nuvoloso 13 12 93 1006 10 N 3.7
Oggi h: 07:20 nuvoloso Nuvoloso 14 12 87 1006 10 SE 7.4
Oggi h: 06:50 nuvoloso Nuvoloso 14 12 87 1006 10 E/SE 9.3
Oggi h: 06:20 nuvoloso Nuvoloso 15 12 82 1006 10 E 11.1
Oggi h: 05:50 sereno Sereno 15 13 87 1006 10 E/SE 11.1
Oggi h: 04:50 sereno Sereno 15 13 87 1006 10 SE 9.3
Oggi h: 03:50 sereno Sereno 16 12 77 1006 10 S/SE 7.4
Oggi h: 03:20 sereno Sereno 16 13 82 1007 10 S 11.1
Oggi h: 02:50 sereno Sereno 16 12 77 1007 10 S/SE 13
Oggi h: 02:20 sereno Sereno 16 13 82 1007 10 S/SE 14.8
Oggi h: 01:50 sereno Sereno 16 12 77 1007 10 S/SE 16.7
Oggi h: 01:20 sereno Sereno 16 12 77 1007 10 S/SE 14.8
Oggi h: 00:50 sereno Sereno 16 12 77 1007 10 S/SE 20.3
Oggi h: 00:20 sereno Sereno 16 12 77 1008 10 S/SE 20.3
Ieri h: 23:50 sereno Sereno 16 12 77 1008 10 SE 25.9
Ieri h: 23:20 sereno Sereno 16 12 77 1008 10 S/SE 20.3
Ieri h: 22:50 sereno Sereno 16 12 77 1008 10 S/SE 16.7
Ieri h: 22:20 sereno Sereno 16 12 77 1008 10 S/SE 20.3
Ieri h: 21:50 sereno Sereno 15 12 82 1008 10 SE 16.7
Ieri h: 21:20 sereno Sereno 15 12 82 1008 10 SE 16.7
Ieri h: 20:50 sereno Sereno 15 11 76 1008 10 SE 18.5
Ieri h: 20:20 sereno Sereno 15 11 76 1008 10 SE 18.5
Ieri h: 19:50 sereno Sereno 15 11 76 1009 10 S/SE 20.3
Ieri h: 19:20 sereno Sereno 15 11 76 1009 10 S/SE 24
Ieri h: 18:50 sereno Sereno 15 11 76 1009 10 SE 22.2
Ieri h: 18:20 sereno Sereno 15 11 76 1009 10 S/SE 20.3
Ieri h: 17:50 sereno Sereno 15 11 76 1009 10 S/SE 14.8
Ieri h: 17:20 sereno Sereno 15 11 76 1009 10 S/SE 18.5
Ieri h: 16:50 sereno Sereno 15 11 76 1009 10 S/SE 16.7
Ieri h: 16:20 sereno Sereno 16 10 67 1009 10 S/SE 18.5
Ieri h: 15:50 sereno Sereno 16 10 67 1009 10 S/SE 18.5
Ieri h: 15:20 sereno Sereno 16 10 67 1010 10 S/SE 14.8
Ieri h: 14:50 sereno Sereno 16 10 67 1010 10 S/SE 11.1
Ieri h: 14:20 sereno Sereno 17 10 63 1010 10 S/SE 14.8
Ieri h: 13:50 sereno Sereno 17 10 63 1010 10 S/SE 13